User: anonymous   Login
Location: Unspecified
(0.0000°N, 0.0000°E)
Time: 10:12:53
(UTC+00:00)
Language:

SAUDISAT 1B - Orbit

View from above orbital plane
View from above orbital plane
View from above satellite
View from above satellite

Ground track
Ground track

The orbit data is extracted from the following two-line orbital elements,

1 26549U 00057E   21168.60071395  .00000031  00000-0  21685-4 0  9997
2 26549  64.5519 276.3487 0026118 193.5357 166.5052 14.83779990120203
Epoch (UTC): 17 June 2021 14:25:01
Eccentricity: 0.0026118
inclination: 64.5519°
perigee height: 599 km
apogee height: 635 km
right ascension of ascending node: 276.3487°
argument of perigee: 193.5357°
revolutions per day: 14.83779990
mean anomaly at epoch: 166.5052°
orbit number at epoch: 12020

The dashed part of the orbit path shows where the satellite is in the earth's shadow,  

DLR